[[{"header":{"parameterUnit":"m.s-1","parameterCategory":1,"la1":30.2991,"la2":30.254,"lo1":-89.0895,"lo2":-89.0444,"dy":0.0017,"dx":0.0017,"nx":28,"ny":28,"refTime":"2023-08-13T21:00:00:Z","depth":0,"parameterNumber":2,"parameterNumberName":"U-component_of_WINDS"},"data":[0,0,0,0,0,0,0,0,0,0,0,0,0,0,0,0,0,0,0,0,0,0,0,0,0,0,0,0,0,0,0,0,0,0,0,0,0,0,0,0,0,0,0,0,0,0,0,0,0,0,0,0,0,0,0,0,0,0,5.0073,5.0073,0,5.0132,5.0133,5.0134,5.0066,5.0063,5.0061,5.0058,5.0122,5.0126,5.013,0,0,0,0,0,0,0,0,0,0,0,0,0,4.9903,4.9907,5.0072,5.0073,5.0074,5.0132,5.0133,5.0134,5.0066,5.0063,5.006,5.0057,5.012,5.0125,5.013,0,0,0,0,0,0,0,0,0,0,0,0,0,4.9971,4.9908,5.0072,5.0047,5.0046,5.0132,5.0133,5.0134,5.0067,5.0063,5.0059,5.0056,5.0119,5.0125,5.0131,5.0245,0,0,5.0149,5.0152,0,0,0,0,0,0,0,0,4.9968,4.9978,5.005,5.0049,5.0047,5.0088,5.0096,5.0171,5.0068,5.0059,5.0058,5.0054,5.0114,5.012,5.014,5.0248,5.0251,5.015,5.0154,5.0156,5.0158,0,0,0,0,0,0,0,4.9963,4.9975,5.0096,5.0051,5.005,5.0034,5.004,5.011,5.0107,5.0059,5.0055,5.0063,5.0112,5.0134,5.0141,5.0252,5.015,5.0155,5.0159,5.0161,5.0461,5.0465,0,0,0,0,0,0,4.9961,4.9971,5.0094,5.0098,4.9997,5.004,5.0046,5.0079,5.0106,5.0107,5.0066,5.0059,5.0125,5.0134,5.0143,5.0281,5.0156,5.0162,5.0165,5.0457,5.0462,5.0467,0,0,0,0,0,0,4.9957,4.9972,5.0092,5.0033,5.0047,5.0047,5.0084,5.0082,5.0103,5.0111,5.011,5.0088,5.0123,5.0134,5.0221,5.0282,5.0165,5.017,5.0452,5.0458,5.0464,5.0557,0,0,0,0,0,0,4.9953,4.9971,5.0014,5.0035,5.0051,5.0168,5.0088,5.0086,5.0114,5.0106,5.0132,5.0133,5.012,5.0212,5.0227,5.0288,5.0175,5.0446,5.0455,5.0462,5.0548,5.0566,5.058,0,0,0,0,0,4.9947,5.0037,5.0017,5.0032,5.0104,5.0172,5.0181,5.0165,5.0119,5.0163,5.0168,5.0132,5.0273,5.0222,5.0238,5.0302,5.0442,5.0452,5.0462,5.0541,5.0562,5.058,0,0,0,0,0,0,5.0024,5.004,5.0017,5.0116,5.0143,5.016,5.0214,5.0187,5.0228,5.0219,5.0197,5.0204,5.0297,5.0308,5.025,5.0416,5.035,5.0364,5.0405,5.0425,5.0441,5.0437,5.018,0,0,0,0,0,5.0052,5.0106,5.0117,5.0204,5.0218,5.0215,5.0243,5.0229,5.0256,5.0267,5.0278,5.0307,5.0358,5.0392,5.0439,5.0549,5.0556,5.0602,5.0618,5.0631,5.0643,5.0705,5.0726,5.0498,5.0498,5.0498,0,0,5.0112,5.0127,5.0162,5.022,5.0239,5.0296,5.0224,5.0287,5.033,5.0277,5.036,5.037,5.04,5.05,5.0545,5.0512,5.0707,5.0643,5.0654,5.0659,5.0717,5.0739,5.0758,5.0505,5.0504,5.0503,0,0,5.025,5.0266,5.0341,5.0362,5.0392,5.039,5.0408,5.043,5.0434,5.0517,5.048,5.0531,5.0618,5.0642,5.0666,5.0816,5.0786,5.0832,5.0916,5.0977,5.0995,5.1011,5.1066,5.1086,5.0844,5.0844,5.0844,0,5.032,5.0404,5.0384,5.045,5.0477,5.0432,5.051,5.0531,5.0576,5.0596,5.0559,5.067,5.0687,5.0793,5.083,5.085,5.0872,5.0829,5.0994,5.1009,5.1024,5.1077,5.1098,5.085,5.0849,5.0849,5.0848,0,5.049,5.0549,5.0606,5.065,5.0684,5.0756,5.0748,5.0785,5.0768,5.077,5.0857,5.0876,5.0928,5.0951,5.0935,5.1057,5.1036,5.0997,5.0931,5.1052,5.1101,5.1121,5.0858,5.0856,5.0854,5.0853,0,0,5.0677,5.0711,5.0733,5.0753,5.0784,5.083,5.09,5.095,5.0984,5.1016,5.1076,5.1153,5.1117,5.1145,5.1131,5.1184,5.1305,5.1138,5.1139,5.117,5.1442,5.1473,5.1496,5.1284,5.1288,5.1291,5.144,0,5.0817,5.0939,5.0924,5.1041,5.1096,5.1055,5.1117,5.1144,5.1148,5.1197,5.1201,5.1256,5.1204,5.1221,5.1272,5.1279,5.1359,5.1268,5.1341,5.1344,5.1336,5.1522,5.1553,5.1694,5.1459,5.1463,5.1465,0,5.0996,5.1036,5.1159,5.1183,5.1206,5.1262,5.1308,5.1354,5.1385,5.1384,5.1416,5.1393,5.1466,5.1399,5.15,5.1438,5.1468,5.1476,5.1481,5.1488,5.1413,5.1536,5.1738,5.1759,5.1495,5.1492,5.149,0,5.1123,5.1207,5.1292,5.1311,5.1341,5.1382,5.1397,5.1423,5.1455,5.1496,5.1517,5.1566,5.1593,5.1632,5.1624,5.1575,5.1729,5.1659,5.1732,5.1732,5.1767,5.1765,5.1978,5.1783,5.1783,5.1783,5.1782,0,5.1282,5.1359,5.135,5.1402,5.1488,5.1471,5.1558,5.1567,5.1592,5.1646,5.1614,5.1666,5.1652,5.1705,5.1699,5.1785,5.1797,5.18,5.1798,5.1804,5.1804,5.1824,5.1815,5.1788,5.1787,5.1786,5.1785,0,5.1439,5.1435,5.1525,5.1547,5.1555,5.1618,5.1637,5.1687,5.1689,5.1759,5.1775,5.1778,5.1839,5.1835,5.1902,5.1899,5.2006,5.1991,5.1996,5.1993,5.2067,5.206,5.2301,5.2333,5.2116,5.2118,5.212,0,5.1541,5.1599,5.1628,5.1662,5.168,5.1735,5.1768,5.1755,5.179,5.1831,5.1877,5.1934,5.1979,5.2078,5.2087,5.214,5.2128,5.2208,5.2135,5.214,5.2131,5.2129,5.2135,5.2223,5.2226,5.2227,5.2229,0,5.1724,5.1719,5.1767,5.1816,5.1856,5.1894,5.1928,5.1958,5.1948,5.1991,5.2052,5.2087,5.2157,5.2215,5.2266,5.2282,5.2256,5.2252,5.2272,5.2279,5.228,5.2283,5.2037,5.2247,5.2245,5.2244,5.2243,5.2242,5.1857,5.1908,5.1937,5.1993,5.2017,5.2051,5.21,5.2108,5.2159,5.2214,5.2203,5.2273,5.2304,5.2369,5.2391,5.2446,5.2417,5.2446,5.2453,5.2461,5.247,5.227,5.2455,5.2455,5.2454,5.2454,5.2453,0,5.204,5.2057,5.2108,5.2157,5.2202,5.2172,5.2209,5.2248,5.231,5.2341,5.2386,5.2458,5.2515,5.2529,5.2584,5.2626,5.2615,5.2641,5.2639,5.2644,5.2492,5.247,5.2649,5.2649,5.2649,5.2649,5.2649,5.2649,5.214,5.2226,5.2226,5.2324,5.2341,5.2408,5.2432,5.2464,5.2489,5.257,5.2617,5.2626,5.2651,5.2708,5.276,5.2763,5.2786,5.2817,5.2815,5.2673,5.2654,5.2635,5.2615,5.2822,5.2822,5.2963,5.2964,5.2965]},{"header":{"parameterUnit":"m.s-1","parameterCategory":1,"la1":30.2991,"la2":30.254,"lo1":-89.0895,"lo2":-89.0444,"dy":0.0017,"dx":0.0017,"nx":28,"ny":28,"refTime":"2023-08-13T21:00:00:Z","depth":0,"parameterNumber":3,"parameterNumberName":"V-component_of_WINDS"},"data":[0,0,0,0,0,0,0,0,0,0,0,0,0,0,0,0,0,0,0,0,0,0,0,0,0,0,0,0,0,0,0,0,0,0,0,0,0,0,0,0,0,0,0,0,0,0,0,0,0,0,0,0,0,0,0,0,0,0,-1.5301,-1.5301,0,-1.5315,-1.5315,-1.5316,-1.5312,-1.5311,-1.5311,-1.5311,-1.5325,-1.5326,-1.5326,0,0,0,0,0,0,0,0,0,0,0,0,0,-1.5269,-1.527,-1.53,-1.5301,-1.5301,-1.5315,-1.5315,-1.5316,-1.5312,-1.5311,-1.5311,-1.5311,-1.5325,-1.5326,-1.5326,0,0,0,0,0,0,0,0,0,0,0,0,0,-1.5283,-1.527,-1.53,-1.5301,-1.5301,-1.5315,-1.5315,-1.5316,-1.5312,-1.5311,-1.5311,-1.5311,-1.5325,-1.5326,-1.5327,-1.5341,0,0,-1.533,-1.533,0,0,0,0,0,0,0,0,-1.5282,-1.5284,-1.5301,-1.5301,-1.5301,-1.5311,-1.5309,-1.5324,-1.5312,-1.5308,-1.5311,-1.531,-1.5321,-1.5322,-1.5326,-1.5342,-1.5342,-1.533,-1.533,-1.5331,-1.5331,0,0,0,0,0,0,0,-1.5281,-1.5284,-1.5306,-1.5301,-1.5301,-1.53,-1.5302,-1.5312,-1.5316,-1.5308,-1.5308,-1.531,-1.5321,-1.5325,-1.5326,-1.5343,-1.533,-1.533,-1.5331,-1.5331,-1.5373,-1.5373,0,0,0,0,0,0,-1.528,-1.5283,-1.5306,-1.5307,-1.529,-1.5301,-1.5303,-1.5308,-1.5316,-1.5317,-1.531,-1.5309,-1.5323,-1.5325,-1.5327,-1.5345,-1.5331,-1.5332,-1.5332,-1.5372,-1.5373,-1.5373,0,0,0,0,0,0,-1.528,-1.5282,-1.5305,-1.5295,-1.5298,-1.5302,-1.5308,-1.5309,-1.5313,-1.5318,-1.5318,-1.5313,-1.5323,-1.5325,-1.5338,-1.5345,-1.5332,-1.5333,-1.5371,-1.5372,-1.5373,-1.5381,0,0,0,0,0,0,-1.5279,-1.5282,-1.5288,-1.5295,-1.5298,-1.5316,-1.5309,-1.5309,-1.5315,-1.5314,-1.5321,-1.5322,-1.5323,-1.5336,-1.5339,-1.5346,-1.5334,-1.5371,-1.5372,-1.5373,-1.5381,-1.5382,-1.5384,0,0,0,0,0,-1.5278,-1.5289,-1.5288,-1.5291,-1.5305,-1.5317,-1.5319,-1.532,-1.5315,-1.5321,-1.5324,-1.5322,-1.5344,-1.5338,-1.534,-1.5348,-1.537,-1.5372,-1.5373,-1.538,-1.5382,-1.5384,0,0,0,0,0,0,-1.5282,-1.529,-1.5289,-1.5303,-1.5309,-1.5316,-1.5323,-1.5322,-1.533,-1.5329,-1.533,-1.5331,-1.5344,-1.5348,-1.534,-1.5364,-1.5357,-1.5358,-1.5361,-1.5363,-1.5365,-1.5364,-1.5334,0,0,0,0,0,-1.5285,-1.5294,-1.53,-1.5312,-1.5315,-1.5319,-1.5324,-1.5324,-1.5331,-1.5333,-1.5338,-1.5344,-1.5352,-1.5358,-1.5366,-1.5381,-1.5383,-1.5388,-1.539,-1.5391,-1.5393,-1.5402,-1.5404,-1.5377,-1.5377,-1.5377,0,0,-1.529,-1.5296,-1.5301,-1.5313,-1.5318,-1.5327,-1.5321,-1.5331,-1.5338,-1.5335,-1.5347,-1.5351,-1.5358,-1.5372,-1.5378,-1.5375,-1.5401,-1.5392,-1.5394,-1.5394,-1.5403,-1.5406,-1.5408,-1.5378,-1.5378,-1.5378,0,0,-1.5305,-1.531,-1.5321,-1.5326,-1.5334,-1.5337,-1.5339,-1.5347,-1.5349,-1.5362,-1.536,-1.5368,-1.5383,-1.5388,-1.5393,-1.5411,-1.5409,-1.5413,-1.5423,-1.5431,-1.5434,-1.5436,-1.5443,-1.5445,-1.5415,-1.5415,-1.5415,0,-1.5311,-1.5325,-1.5327,-1.5337,-1.5343,-1.5341,-1.5352,-1.5357,-1.5367,-1.5371,-1.5367,-1.5386,-1.5391,-1.5406,-1.5411,-1.5415,-1.5418,-1.5413,-1.5433,-1.5435,-1.5437,-1.5444,-1.5446,-1.5415,-1.5415,-1.5415,-1.5415,0,-1.5333,-1.5342,-1.535,-1.5361,-1.5367,-1.5378,-1.5381,-1.5387,-1.5387,-1.539,-1.5404,-1.5409,-1.5419,-1.5423,-1.5422,-1.5439,-1.5437,-1.5433,-1.5426,-1.544,-1.5447,-1.5449,-1.5416,-1.5416,-1.5416,-1.5416,0,0,-1.5351,-1.5362,-1.5365,-1.537,-1.5379,-1.5387,-1.5398,-1.5408,-1.5414,-1.5421,-1.543,-1.5443,-1.544,-1.5445,-1.5446,-1.5453,-1.5468,-1.5449,-1.5449,-1.5453,-1.5488,-1.5491,-1.5494,-1.5467,-1.5468,-1.5468,-1.5487,0,-1.5367,-1.5387,-1.5389,-1.5406,-1.5416,-1.5415,-1.5424,-1.5431,-1.5434,-1.5443,-1.5446,-1.5455,-1.545,-1.5454,-1.5461,-1.5465,-1.5476,-1.5464,-1.5476,-1.5477,-1.5475,-1.5497,-1.55,-1.5518,-1.549,-1.549,-1.5491,0,-1.5389,-1.5397,-1.5416,-1.5425,-1.5429,-1.5437,-1.5447,-1.5455,-1.5463,-1.5465,-1.5471,-1.5471,-1.5482,-1.5475,-1.5491,-1.5483,-1.5488,-1.5491,-1.5492,-1.5493,-1.5485,-1.55,-1.5524,-1.5527,-1.5494,-1.5494,-1.5494,0,-1.5401,-1.5417,-1.5431,-1.5435,-1.5445,-1.5452,-1.5456,-1.5463,-1.5469,-1.5478,-1.5482,-1.5491,-1.5496,-1.5504,-1.5506,-1.55,-1.5523,-1.5515,-1.5525,-1.5525,-1.553,-1.5529,-1.5556,-1.5532,-1.5532,-1.5532,-1.5532,0,-1.542,-1.5432,-1.5437,-1.5445,-1.5459,-1.5461,-1.5474,-1.5478,-1.5484,-1.5494,-1.5493,-1.5502,-1.5504,-1.5513,-1.5515,-1.5529,-1.5531,-1.5533,-1.5533,-1.5533,-1.5533,-1.5537,-1.5536,-1.5533,-1.5533,-1.5532,-1.5532,0,-1.5436,-1.544,-1.5455,-1.5463,-1.5466,-1.5475,-1.5483,-1.5491,-1.5494,-1.5506,-1.5509,-1.5514,-1.5525,-1.5528,-1.5541,-1.5542,-1.5558,-1.5557,-1.5556,-1.5556,-1.5566,-1.5565,-1.5596,-1.56,-1.5573,-1.5574,-1.5574,0,-1.5448,-1.5457,-1.5467,-1.5473,-1.5478,-1.5488,-1.5495,-1.5498,-1.5504,-1.5514,-1.5521,-1.5532,-1.5541,-1.5559,-1.5563,-1.5573,-1.5573,-1.5583,-1.5575,-1.5575,-1.5574,-1.5574,-1.5575,-1.5585,-1.5585,-1.5585,-1.5586,0,-1.5469,-1.5471,-1.548,-1.5491,-1.5499,-1.5507,-1.5515,-1.552,-1.5524,-1.5532,-1.5543,-1.555,-1.5564,-1.5575,-1.5585,-1.559,-1.5589,-1.5588,-1.5591,-1.5592,-1.5591,-1.5592,-1.5561,-1.5588,-1.5587,-1.5587,-1.5587,-1.5587,-1.5484,-1.5493,-1.5501,-1.5512,-1.5518,-1.5526,-1.5535,-1.5539,-1.5549,-1.5561,-1.5561,-1.5574,-1.5582,-1.5596,-1.5601,-1.5611,-1.5608,-1.5612,-1.5613,-1.5614,-1.5615,-1.5589,-1.5613,-1.5613,-1.5612,-1.5612,-1.5612,0,-1.5506,-1.5511,-1.5522,-1.5533,-1.5542,-1.554,-1.5549,-1.5557,-1.5568,-1.5576,-1.5585,-1.5598,-1.5609,-1.5615,-1.5626,-1.5633,-1.5632,-1.5635,-1.5635,-1.5637,-1.5617,-1.5614,-1.5636,-1.5636,-1.5636,-1.5636,-1.5635,-1.5635,-1.5518,-1.5533,-1.5536,-1.5554,-1.5559,-1.5572,-1.5577,-1.5584,-1.5591,-1.5606,-1.5615,-1.5619,-1.5626,-1.5638,-1.5648,-1.5649,-1.5654,-1.5657,-1.5658,-1.564,-1.5638,-1.5636,-1.5633,-1.5658,-1.5658,-1.5677,-1.5677,-1.5677]}]]